Location: Fargo
(46.8667°N, 96.7833°W)
Time: 09:57:18
(UTC-06:00)

NOAA 19 - Visible Passes

Search period start: 14 December 2019 00:00
Search period end: 24 December 2019 00:00
Orbit: 842 x 861 km, 99.2° (Epoch: 13 December)

Date Brightness Start Highest point End Pass type
(mag) Time Alt. Az. Time Alt. Az. Time Alt. Az.
14 Dec 8.2 04:44:39 10° ENE 04:47:13 13° E 04:49:45 10° ESE visible
14 Dec 5.2 06:23:06 10° NNE 06:28:41 86° ESE 06:34:11 10° SSW visible
14 Dec 6.8 17:53:00 10° SSW 17:58:10 39° W 18:03:22 10° NNW visible
15 Dec 8.4 04:35:05 10° E 04:35:19 10° E 04:35:34 10° E visible
15 Dec 5.5 06:11:26 10° NNE 06:16:59 70° ESE 06:22:28 10° S visible
15 Dec 6.3 17:41:03 10° S 17:46:24 49° W 17:51:50 10° NNW visible
16 Dec 5.9 05:59:48 10° NNE 06:05:16 56° E 06:10:39 10° S visible
16 Dec 5.9 17:29:13 10° S 17:34:41 61° WSW 17:40:13 10° NNW visible
17 Dec 6.3 05:48:13 10° NNE 05:53:32 45° E 05:58:46 10° S visible
17 Dec 5.9 07:29:13 10° N 07:34:00 31° WNW 07:38:45 10° WSW visible
17 Dec 5.5 17:17:26 10° S 17:22:59 76° WSW 17:28:34 10° NNW visible
17 Dec 8.4 19:02:50 10° WSW 19:04:33 11° W 19:06:16 10° WNW visible
18 Dec 6.8 05:36:41 10° NNE 05:41:46 36° E 05:46:47 10° SSE visible
18 Dec 5.7 07:17:22 10° N 07:22:25 37° WNW 07:27:25 10° SW visible
18 Dec 8.2 18:49:41 10° WSW 18:52:41 15° W 18:55:41 10° NW visible
19 Dec 7.1 05:25:12 10° NE 05:29:59 29° E 05:34:42 10° SSE visible
19 Dec 5.5 07:05:33 10° N 07:10:48 46° WNW 07:16:01 10° SW visible
19 Dec 8.0 18:37:03 10° SW 18:40:50 18° W 18:44:38 10° NW visible
20 Dec 7.5 05:13:48 10° NE 05:18:10 23° E 05:22:30 10° SE visible
20 Dec 5.3 06:53:47 10° N 06:59:11 56° WNW 07:04:32 10° SW visible
20 Dec 7.7 18:24:40 10° SW 18:29:00 23° W 18:33:22 10° NW visible
21 Dec 7.8 05:02:32 10° NE 05:06:21 19° E 05:10:07 10° SE visible
21 Dec 5.1 06:42:01 10° N 06:47:33 70° WNW 06:52:59 10° SSW visible
21 Dec 7.4 18:12:27 10° SSW 18:17:12 29° W 18:21:58 10° NW visible
22 Dec 8.1 04:51:27 10° NE 04:54:30 15° E 04:57:31 10° ESE visible
22 Dec 5.2 06:30:19 10° NNE 06:35:52 86° WNW 06:41:22 10° SSW visible
22 Dec 7.0 18:00:22 10° SSW 18:05:25 35° W 18:10:30 10° NNW visible
23 Dec 8.3 04:40:50 10° ENE 04:42:37 11° E 04:44:24 10° ESE visible
23 Dec 5.3 06:18:38 10° NNE 06:24:11 78° ESE 06:29:40 10° SSW visible
23 Dec 6.6 17:48:22 10° S 17:53:39 44° W 17:58:58 10° NNW visible
